Flag for U.S.A. Weather past 2 weeks in Lakewood, Colorado, U.S.A.

Now
63 °F

Broken clouds.


Feels Like: 63 °F
Forecast: 51 / 83 °F
Wind: 7 mph from South

Location: Centennial Airport

Current Time: Aug 29, 2014 at 8:36:58 PM

Latest Report: Aug 29, 2014 at 7:53 PM


Visibility: 10 mi

Pressure: 30.01 "Hg

Humidity: 52%

Dew point: 45 °F

Location of LakewoodLocation

Historic Weather in Lakewood — Graph

°F

Lakewood temperature yesterday

Maximum temperature yesterday: 71 °F (at 11:53 AM)
Minimum temperature yesterday: 50 °F (at 4:53 AM)
Average temperature yesterday: 58 °F

Past Weeks' High & Low Weather Summary

 TemperatureHumidityPressure
High88 °F (Aug 17, 1:53 PM)93% (Aug 23, 2:53 AM)30.15 "Hg (Aug 23, 2:53 AM)
Low50 °F (Aug 28, 4:53 AM)14% (Aug 17, 12:53 PM)29.70 "Hg (Aug 19, 2:53 PM)
Average67 °F54%29.94 "Hg
* Reported Aug 14 6:53 PM — Aug 29 6:53 PM, Lakewood, Weather by CustomWeather, © 2014

Note: Actual official high and low records may vary slightly from our data, if they occured in-between our weather recording intervals... More about our weather records

Advertising

Lakewood weather history for previous 24 hours

 ConditionsComfort  
Time TempWeatherWind HumidityBarometerVisibility
6:53 PM
Aug 29
64 °FBroken clouds.10 mph50%30.02 "Hg10 mi
5:53 PM66 °FBroken clouds.9 mph47%30.00 "Hg10 mi
4:53 PM71 °FBroken clouds.7 mph34%30.01 "Hg10 mi
3:53 PM66 °FThunderstorms. Broken clouds.15 mph47%30.00 "Hg10 mi
2:56 PM75 °FThunderstorms. Cloudy.14 mph34%30.12 "Hg10 mi
12:53 PM78 °FBroken clouds.10 mph25%29.96 "Hg10 mi
11:53 AM77 °FPassing clouds.5 mph29%29.97 "Hg10 mi
10:53 AM75 °FPassing clouds.6 mph31%29.98 "Hg10 mi
9:53 AM70 °FScattered clouds.3 mph37%29.99 "Hg10 mi
8:53 AM65 °FScattered clouds.8 mph47%30.01 "Hg10 mi
7:53 AM62 °FPassing clouds.9 mph50%30.00 "Hg10 mi
6:53 AM56 °FPassing clouds.10 mph58%30.01 "Hg10 mi
5:53 AM56 °FPassing clouds.12 mph58%30.01 "Hg10 mi
4:53 AM55 °FPassing clouds.12 mph59%30.00 "Hg10 mi
3:53 AM56 °FClear.12 mph60%30.01 "Hg10 mi
2:53 AM56 °FClear.9 mph65%29.99 "Hg10 mi
1:53 AM53 °FClear.7 mph74%29.98 "Hg10 mi
12:53 AM51 °FPassing clouds.3 mph83%30.00 "Hg10 mi
11:53 PM
Aug 28
52 °FPassing clouds.3 mph80%30.00 "Hg10 mi
10:53 PM53 °FPassing clouds.7 mph77%30.02 "Hg10 mi
9:53 PM55 °FPassing clouds.9 mph74%30.03 "Hg10 mi
8:53 PM55 °FPassing clouds.5 mph77%30.04 "Hg10 mi
Weather by CustomWeather, © 2014

See weather overviewHow to use our weather pages